Index of /20260422/WXO-DD/model_gdps/15km/00/027
Name Last modified Size Description
Parent Directory -
20260422T00Z_MSC_GDPS_AbsoluteVorticity_IsbL-0200_LatLon0.15_PT027H.grib2 2026-04-22 04:09 1.2M
20260422T00Z_MSC_GDPS_AbsoluteVorticity_IsbL-0250_LatLon0.15_PT027H.grib2 2026-04-22 04:09 1.3M
20260422T00Z_MSC_GDPS_AbsoluteVorticity_IsbL-0500_LatLon0.15_PT027H.grib2 2026-04-22 04:09 1.5M
20260422T00Z_MSC_GDPS_AbsoluteVorticity_IsbL-0700_LatLon0.15_PT027H.grib2 2026-04-22 04:09 1.3M
20260422T00Z_MSC_GDPS_AbsoluteVorticity_IsbL-0850_LatLon0.15_PT027H.grib2 2026-04-22 04:09 1.6M
20260422T00Z_MSC_GDPS_AirTemp_AGL-120m_LatLon0.15_PT027H.grib2 2026-04-22 04:09 896K
20260422T00Z_MSC_GDPS_AirTemp_AGL-2m_LatLon0.15_PT027H.grib2 2026-04-22 04:09 1.2M
20260422T00Z_MSC_GDPS_AirTemp_AGL-40m_LatLon0.15_PT027H.grib2 2026-04-22 04:09 914K
20260422T00Z_MSC_GDPS_AirTemp_AGL-80m_LatLon0.15_PT027H.grib2 2026-04-22 04:09 904K
20260422T00Z_MSC_GDPS_AirTemp_IsbL-0001_LatLon0.15_PT027H.grib2 2026-04-22 04:09 650K
20260422T00Z_MSC_GDPS_AirTemp_IsbL-0005_LatLon0.15_PT027H.grib2 2026-04-22 04:09 746K
20260422T00Z_MSC_GDPS_AirTemp_IsbL-0010_LatLon0.15_PT027H.grib2 2026-04-22 04:09 759K
20260422T00Z_MSC_GDPS_AirTemp_IsbL-0020_LatLon0.15_PT027H.grib2 2026-04-22 04:09 700K
20260422T00Z_MSC_GDPS_AirTemp_IsbL-0030_LatLon0.15_PT027H.grib2 2026-04-22 04:09 753K
20260422T00Z_MSC_GDPS_AirTemp_IsbL-0050_LatLon0.15_PT027H.grib2 2026-04-22 04:09 817K
20260422T00Z_MSC_GDPS_AirTemp_IsbL-0100_LatLon0.15_PT027H.grib2 2026-04-22 04:09 956K
20260422T00Z_MSC_GDPS_AirTemp_IsbL-0150_LatLon0.15_PT027H.grib2 2026-04-22 04:09 1.0M
20260422T00Z_MSC_GDPS_AirTemp_IsbL-0175_LatLon0.15_PT027H.grib2 2026-04-22 04:09 1.0M
20260422T00Z_MSC_GDPS_AirTemp_IsbL-0200_LatLon0.15_PT027H.grib2 2026-04-22 04:09 1.0M
20260422T00Z_MSC_GDPS_AirTemp_IsbL-0225_LatLon0.15_PT027H.grib2 2026-04-22 04:09 1.0M
20260422T00Z_MSC_GDPS_AirTemp_IsbL-0250_LatLon0.15_PT027H.grib2 2026-04-22 04:09 1.0M
20260422T00Z_MSC_GDPS_AirTemp_IsbL-0275_LatLon0.15_PT027H.grib2 2026-04-22 04:09 1.0M
20260422T00Z_MSC_GDPS_AirTemp_IsbL-0300_LatLon0.15_PT027H.grib2 2026-04-22 04:09 1.0M
20260422T00Z_MSC_GDPS_AirTemp_IsbL-0350_LatLon0.15_PT027H.grib2 2026-04-22 04:09 932K
20260422T00Z_MSC_GDPS_AirTemp_IsbL-0400_LatLon0.15_PT027H.grib2 2026-04-22 04:09 947K
20260422T00Z_MSC_GDPS_AirTemp_IsbL-0450_LatLon0.15_PT027H.grib2 2026-04-22 04:09 972K
20260422T00Z_MSC_GDPS_AirTemp_IsbL-0500_LatLon0.15_PT027H.grib2 2026-04-22 04:09 1.0M
20260422T00Z_MSC_GDPS_AirTemp_IsbL-0550_LatLon0.15_PT027H.grib2 2026-04-22 04:09 1.0M
20260422T00Z_MSC_GDPS_AirTemp_IsbL-0600_LatLon0.15_PT027H.grib2 2026-04-22 04:09 841K
20260422T00Z_MSC_GDPS_AirTemp_IsbL-0650_LatLon0.15_PT027H.grib2 2026-04-22 04:09 917K
20260422T00Z_MSC_GDPS_AirTemp_IsbL-0700_LatLon0.15_PT027H.grib2 2026-04-22 04:09 948K
20260422T00Z_MSC_GDPS_AirTemp_IsbL-0750_LatLon0.15_PT027H.grib2 2026-04-22 04:09 1.0M
20260422T00Z_MSC_GDPS_AirTemp_IsbL-0800_LatLon0.15_PT027H.grib2 2026-04-22 04:09 1.1M
20260422T00Z_MSC_GDPS_AirTemp_IsbL-0850_LatLon0.15_PT027H.grib2 2026-04-22 04:09 1.1M
20260422T00Z_MSC_GDPS_AirTemp_IsbL-0875_LatLon0.15_PT027H.grib2 2026-04-22 04:09 1.1M
20260422T00Z_MSC_GDPS_AirTemp_IsbL-0900_LatLon0.15_PT027H.grib2 2026-04-22 04:09 1.1M
20260422T00Z_MSC_GDPS_AirTemp_IsbL-0925_LatLon0.15_PT027H.grib2 2026-04-22 04:09 1.1M
20260422T00Z_MSC_GDPS_AirTemp_IsbL-0950_LatLon0.15_PT027H.grib2 2026-04-22 04:09 1.1M
20260422T00Z_MSC_GDPS_AirTemp_IsbL-0970_LatLon0.15_PT027H.grib2 2026-04-22 04:09 1.1M
20260422T00Z_MSC_GDPS_AirTemp_IsbL-0985_LatLon0.15_PT027H.grib2 2026-04-22 04:09 1.1M
20260422T00Z_MSC_GDPS_AirTemp_IsbL-1000_LatLon0.15_PT027H.grib2 2026-04-22 04:09 1.1M
20260422T00Z_MSC_GDPS_AirTemp_IsbL-1015_LatLon0.15_PT027H.grib2 2026-04-22 04:09 1.0M
20260422T00Z_MSC_GDPS_Albedo_Sfc_LatLon0.15_PT027H.grib2 2026-04-22 04:09 248K
20260422T00Z_MSC_GDPS_CAPE_Sfc_LatLon0.15_PT027H.grib2 2026-04-22 04:09 3.8M
20260422T00Z_MSC_GDPS_CIN_Sfc_LatLon0.15_PT027H.grib2 2026-04-22 04:09 2.8M
20260422T00Z_MSC_GDPS_CloudWater_EAtm_LatLon0.15_PT027H.grib2 2026-04-22 04:09 523K
20260422T00Z_MSC_GDPS_ConvectivePrecip-Accum_Sfc_LatLon0.15_PT027H.grib2 2026-04-22 04:09 2.4M
20260422T00Z_MSC_GDPS_DewPointDepression_AGL-2m_LatLon0.15_PT027H.grib2 2026-04-22 04:09 747K
20260422T00Z_MSC_GDPS_DewPointDepression_IsbL-0010_LatLon0.15_PT027H.grib2 2026-04-22 04:09 18K
20260422T00Z_MSC_GDPS_DewPointDepression_IsbL-0020_LatLon0.15_PT027H.grib2 2026-04-22 04:09 70K
20260422T00Z_MSC_GDPS_DewPointDepression_IsbL-0030_LatLon0.15_PT027H.grib2 2026-04-22 04:09 75K
20260422T00Z_MSC_GDPS_DewPointDepression_IsbL-0050_LatLon0.15_PT027H.grib2 2026-04-22 04:09 354K
20260422T00Z_MSC_GDPS_DewPointDepression_IsbL-0100_LatLon0.15_PT027H.grib2 2026-04-22 04:09 400K
20260422T00Z_MSC_GDPS_DewPointDepression_IsbL-0150_LatLon0.15_PT027H.grib2 2026-04-22 04:09 479K
20260422T00Z_MSC_GDPS_DewPointDepression_IsbL-0175_LatLon0.15_PT027H.grib2 2026-04-22 04:09 568K
20260422T00Z_MSC_GDPS_DewPointDepression_IsbL-0200_LatLon0.15_PT027H.grib2 2026-04-22 04:09 647K
20260422T00Z_MSC_GDPS_DewPointDepression_IsbL-0225_LatLon0.15_PT027H.grib2 2026-04-22 04:09 764K
20260422T00Z_MSC_GDPS_DewPointDepression_IsbL-0250_LatLon0.15_PT027H.grib2 2026-04-22 04:09 862K
20260422T00Z_MSC_GDPS_DewPointDepression_IsbL-0275_LatLon0.15_PT027H.grib2 2026-04-22 04:09 886K
20260422T00Z_MSC_GDPS_DewPointDepression_IsbL-0300_LatLon0.15_PT027H.grib2 2026-04-22 04:09 931K
20260422T00Z_MSC_GDPS_DewPointDepression_IsbL-0350_LatLon0.15_PT027H.grib2 2026-04-22 04:09 962K
20260422T00Z_MSC_GDPS_DewPointDepression_IsbL-0400_LatLon0.15_PT027H.grib2 2026-04-22 04:09 1.0M
20260422T00Z_MSC_GDPS_DewPointDepression_IsbL-0450_LatLon0.15_PT027H.grib2 2026-04-22 04:09 1.0M
20260422T00Z_MSC_GDPS_DewPointDepression_IsbL-0500_LatLon0.15_PT027H.grib2 2026-04-22 04:09 1.0M
20260422T00Z_MSC_GDPS_DewPointDepression_IsbL-0550_LatLon0.15_PT027H.grib2 2026-04-22 04:09 1.0M
20260422T00Z_MSC_GDPS_DewPointDepression_IsbL-0600_LatLon0.15_PT027H.grib2 2026-04-22 04:09 1.0M
20260422T00Z_MSC_GDPS_DewPointDepression_IsbL-0650_LatLon0.15_PT027H.grib2 2026-04-22 04:09 1.0M
20260422T00Z_MSC_GDPS_DewPointDepression_IsbL-0700_LatLon0.15_PT027H.grib2 2026-04-22 04:09 1.1M
20260422T00Z_MSC_GDPS_DewPointDepression_IsbL-0750_LatLon0.15_PT027H.grib2 2026-04-22 04:09 1.1M
20260422T00Z_MSC_GDPS_DewPointDepression_IsbL-0800_LatLon0.15_PT027H.grib2 2026-04-22 04:09 1.1M
20260422T00Z_MSC_GDPS_DewPointDepression_IsbL-0850_LatLon0.15_PT027H.grib2 2026-04-22 04:09 1.1M
20260422T00Z_MSC_GDPS_DewPointDepression_IsbL-0875_LatLon0.15_PT027H.grib2 2026-04-22 04:09 1.1M
20260422T00Z_MSC_GDPS_DewPointDepression_IsbL-0900_LatLon0.15_PT027H.grib2 2026-04-22 04:09 1.0M
20260422T00Z_MSC_GDPS_DewPointDepression_IsbL-0925_LatLon0.15_PT027H.grib2 2026-04-22 04:09 1.0M
20260422T00Z_MSC_GDPS_DewPointDepression_IsbL-0950_LatLon0.15_PT027H.grib2 2026-04-22 04:09 1.0M
20260422T00Z_MSC_GDPS_DewPointDepression_IsbL-0970_LatLon0.15_PT027H.grib2 2026-04-22 04:09 1.0M
20260422T00Z_MSC_GDPS_DewPointDepression_IsbL-0985_LatLon0.15_PT027H.grib2 2026-04-22 04:09 966K
20260422T00Z_MSC_GDPS_DewPointDepression_IsbL-1000_LatLon0.15_PT027H.grib2 2026-04-22 04:09 949K
20260422T00Z_MSC_GDPS_DewPointDepression_IsbL-1015_LatLon0.15_PT027H.grib2 2026-04-22 04:09 893K
20260422T00Z_MSC_GDPS_DewPoint_AGL-2m_LatLon0.15_PT027H.grib2 2026-04-22 04:09 596K
20260422T00Z_MSC_GDPS_DownwardLongwaveRadiationFlux-Accum_Sfc_LatLon0.15_PT027H.grib2 2026-04-22 04:09 1.0M
20260422T00Z_MSC_GDPS_DownwardShortwaveRadiationFlux-Accum_NTAtm_LatLon0.15_PT027H.grib2 2026-04-22 04:09 197K
20260422T00Z_MSC_GDPS_DownwardShortwaveRadiationFlux-Accum_Sfc_LatLon0.15_PT027H.grib2 2026-04-22 04:09 1.2M
20260422T00Z_MSC_GDPS_FreezingRain-Accum1h_Sfc_LatLon0.15_PT027H.grib2 2026-04-22 04:09 29K
20260422T00Z_MSC_GDPS_FreezingRain-Accum3h_Sfc_LatLon0.15_PT027H.grib2 2026-04-22 04:09 32K
20260422T00Z_MSC_GDPS_FreezingRain-Accum_Sfc_LatLon0.15_PT027H.grib2 2026-04-22 04:09 132K
20260422T00Z_MSC_GDPS_GeopotentialHeight_IsbL-0001_LatLon0.15_PT027H.grib2 2026-04-22 04:09 410K
20260422T00Z_MSC_GDPS_GeopotentialHeight_IsbL-0005_LatLon0.15_PT027H.grib2 2026-04-22 04:09 491K
20260422T00Z_MSC_GDPS_GeopotentialHeight_IsbL-0010_LatLon0.15_PT027H.grib2 2026-04-22 04:09 418K
20260422T00Z_MSC_GDPS_GeopotentialHeight_IsbL-0020_LatLon0.15_PT027H.grib2 2026-04-22 04:09 564K
20260422T00Z_MSC_GDPS_GeopotentialHeight_IsbL-0030_LatLon0.15_PT027H.grib2 2026-04-22 04:09 569K
20260422T00Z_MSC_GDPS_GeopotentialHeight_IsbL-0050_LatLon0.15_PT027H.grib2 2026-04-22 04:09 574K
20260422T00Z_MSC_GDPS_GeopotentialHeight_IsbL-0100_LatLon0.15_PT027H.grib2 2026-04-22 04:09 608K
20260422T00Z_MSC_GDPS_GeopotentialHeight_IsbL-0150_LatLon0.15_PT027H.grib2 2026-04-22 04:09 626K
20260422T00Z_MSC_GDPS_GeopotentialHeight_IsbL-0175_LatLon0.15_PT027H.grib2 2026-04-22 04:09 632K
20260422T00Z_MSC_GDPS_GeopotentialHeight_IsbL-0200_LatLon0.15_PT027H.grib2 2026-04-22 04:09 639K
20260422T00Z_MSC_GDPS_GeopotentialHeight_IsbL-0225_LatLon0.15_PT027H.grib2 2026-04-22 04:09 636K
20260422T00Z_MSC_GDPS_GeopotentialHeight_IsbL-0250_LatLon0.15_PT027H.grib2 2026-04-22 04:09 645K
20260422T00Z_MSC_GDPS_GeopotentialHeight_IsbL-0275_LatLon0.15_PT027H.grib2 2026-04-22 04:09 644K
20260422T00Z_MSC_GDPS_GeopotentialHeight_IsbL-0300_LatLon0.15_PT027H.grib2 2026-04-22 04:09 635K
20260422T00Z_MSC_GDPS_GeopotentialHeight_IsbL-0350_LatLon0.15_PT027H.grib2 2026-04-22 04:09 633K
20260422T00Z_MSC_GDPS_GeopotentialHeight_IsbL-0400_LatLon0.15_PT027H.grib2 2026-04-22 04:09 626K
20260422T00Z_MSC_GDPS_GeopotentialHeight_IsbL-0450_LatLon0.15_PT027H.grib2 2026-04-22 04:09 614K
20260422T00Z_MSC_GDPS_GeopotentialHeight_IsbL-0500_LatLon0.15_PT027H.grib2 2026-04-22 04:09 534K
20260422T00Z_MSC_GDPS_GeopotentialHeight_IsbL-0550_LatLon0.15_PT027H.grib2 2026-04-22 04:09 526K
20260422T00Z_MSC_GDPS_GeopotentialHeight_IsbL-0600_LatLon0.15_PT027H.grib2 2026-04-22 04:09 688K
20260422T00Z_MSC_GDPS_GeopotentialHeight_IsbL-0650_LatLon0.15_PT027H.grib2 2026-04-22 04:09 686K
20260422T00Z_MSC_GDPS_GeopotentialHeight_IsbL-0700_LatLon0.15_PT027H.grib2 2026-04-22 04:09 679K
20260422T00Z_MSC_GDPS_GeopotentialHeight_IsbL-0750_LatLon0.15_PT027H.grib2 2026-04-22 04:09 684K
20260422T00Z_MSC_GDPS_GeopotentialHeight_IsbL-0800_LatLon0.15_PT027H.grib2 2026-04-22 04:09 699K
20260422T00Z_MSC_GDPS_GeopotentialHeight_IsbL-0850_LatLon0.15_PT027H.grib2 2026-04-22 04:09 706K
20260422T00Z_MSC_GDPS_GeopotentialHeight_IsbL-0875_LatLon0.15_PT027H.grib2 2026-04-22 04:09 712K
20260422T00Z_MSC_GDPS_GeopotentialHeight_IsbL-0900_LatLon0.15_PT027H.grib2 2026-04-22 04:09 718K
20260422T00Z_MSC_GDPS_GeopotentialHeight_IsbL-0925_LatLon0.15_PT027H.grib2 2026-04-22 04:09 727K
20260422T00Z_MSC_GDPS_GeopotentialHeight_IsbL-0950_LatLon0.15_PT027H.grib2 2026-04-22 04:09 734K
20260422T00Z_MSC_GDPS_GeopotentialHeight_IsbL-0970_LatLon0.15_PT027H.grib2 2026-04-22 04:09 747K
20260422T00Z_MSC_GDPS_GeopotentialHeight_IsbL-0985_LatLon0.15_PT027H.grib2 2026-04-22 04:09 763K
20260422T00Z_MSC_GDPS_GeopotentialHeight_IsbL-1000_LatLon0.15_PT027H.grib2 2026-04-22 04:09 783K
20260422T00Z_MSC_GDPS_GeopotentialHeight_IsbL-1015_LatLon0.15_PT027H.grib2 2026-04-22 04:09 806K
20260422T00Z_MSC_GDPS_Humidex_Sfc_LatLon0.15_PT027H.grib2 2026-04-22 04:09 5.3M
20260422T00Z_MSC_GDPS_IcePellets-Accum1h_Sfc_LatLon0.15_PT027H.grib2 2026-04-22 04:09 10K
20260422T00Z_MSC_GDPS_IcePellets-Accum3h_Sfc_LatLon0.15_PT027H.grib2 2026-04-22 04:09 12K
20260422T00Z_MSC_GDPS_IcePellets-Accum_Sfc_LatLon0.15_PT027H.grib2 2026-04-22 04:09 35K
20260422T00Z_MSC_GDPS_KIndex_Sfc_LatLon0.15_PT027H.grib2 2026-04-22 04:09 6.4M
20260422T00Z_MSC_GDPS_LatentHeatNetFlux_Sfc_LatLon0.15_PT027H.grib2 2026-04-22 04:09 672K
20260422T00Z_MSC_GDPS_LiftedIndex-MU-VT_IsbL-0500_LatLon0.15_PT027H.grib2 2026-04-22 04:09 5.4M
20260422T00Z_MSC_GDPS_NetLongwaveRadiationFlux-Accum_Sfc_LatLon0.15_PT027H.grib2 2026-04-22 04:09 1.2M
20260422T00Z_MSC_GDPS_NetShortwaveRadiationFlux-Accum_Sfc_LatLon0.15_PT027H.grib2 2026-04-22 04:09 1.2M
20260422T00Z_MSC_GDPS_O3MixingRatio_LatLon0.15_PT027H.grib2 2026-04-22 04:58 2.0M
20260422T00Z_MSC_GDPS_O3_EAtm_LatLon0.15_PT027H.grib2 2026-04-22 04:58 2.5M
20260422T00Z_MSC_GDPS_PlanetaryBoundaryLayerHeight_Sfc_LatLon0.15_PT027H.grib2 2026-04-22 04:09 2.4M
20260422T00Z_MSC_GDPS_Precip-Accum1h_Sfc_LatLon0.15_PT027H.grib2 2026-04-22 04:09 3.2M
20260422T00Z_MSC_GDPS_Precip-Accum3h_Sfc_LatLon0.15_PT027H.grib2 2026-04-22 04:09 3.4M
20260422T00Z_MSC_GDPS_Precip-Accum_Sfc_LatLon0.15_PT027H.grib2 2026-04-22 04:09 4.4M
20260422T00Z_MSC_GDPS_PrecipRate_Sfc_LatLon0.15_PT027H.grib2 2026-04-22 04:09 2.9M
20260422T00Z_MSC_GDPS_PrecipType-Instant_Sfc_LatLon0.15_PT027H.grib2 2026-04-22 04:09 1.5M
20260422T00Z_MSC_GDPS_Pressure_MSL_LatLon0.15_PT027H.grib2 2026-04-22 04:09 715K
20260422T00Z_MSC_GDPS_Pressure_PVU-1.5_LatLon0.15_PT027H.grib2 2026-04-22 04:09 5.8M
20260422T00Z_MSC_GDPS_Pressure_PVU-1_LatLon0.15_PT027H.grib2 2026-04-22 04:09 6.0M
20260422T00Z_MSC_GDPS_Pressure_PVU-2_LatLon0.15_PT027H.grib2 2026-04-22 04:09 5.6M
20260422T00Z_MSC_GDPS_Pressure_Sfc_LatLon0.15_PT027H.grib2 2026-04-22 04:09 1.1M
20260422T00Z_MSC_GDPS_RadiativeTemp_Sfc_LatLon0.15_PT027H.grib2 2026-04-22 04:09 654K
20260422T00Z_MSC_GDPS_Rain-Accum1h_Sfc_LatLon0.15_PT027H.grib2 2026-04-22 04:09 1.6M
20260422T00Z_MSC_GDPS_Rain-Accum3h_Sfc_LatLon0.15_PT027H.grib2 2026-04-22 04:09 1.7M
20260422T00Z_MSC_GDPS_Rain-Accum_Sfc_LatLon0.15_PT027H.grib2 2026-04-22 04:09 3.2M
20260422T00Z_MSC_GDPS_RelativeHumidity_AGL-2m_LatLon0.15_PT027H.grib2 2026-04-22 04:09 1.0M
20260422T00Z_MSC_GDPS_RelativeHumidity_IsbL-0010_LatLon0.15_PT027H.grib2 2026-04-22 04:09 272K
20260422T00Z_MSC_GDPS_RelativeHumidity_IsbL-0020_LatLon0.15_PT027H.grib2 2026-04-22 04:09 284K
20260422T00Z_MSC_GDPS_RelativeHumidity_IsbL-0030_LatLon0.15_PT027H.grib2 2026-04-22 04:09 427K
20260422T00Z_MSC_GDPS_RelativeHumidity_IsbL-0050_LatLon0.15_PT027H.grib2 2026-04-22 04:09 421K
20260422T00Z_MSC_GDPS_RelativeHumidity_IsbL-0100_LatLon0.15_PT027H.grib2 2026-04-22 04:09 348K
20260422T00Z_MSC_GDPS_RelativeHumidity_IsbL-0150_LatLon0.15_PT027H.grib2 2026-04-22 04:09 656K
20260422T00Z_MSC_GDPS_RelativeHumidity_IsbL-0175_LatLon0.15_PT027H.grib2 2026-04-22 04:09 781K
20260422T00Z_MSC_GDPS_RelativeHumidity_IsbL-0200_LatLon0.15_PT027H.grib2 2026-04-22 04:09 694K
20260422T00Z_MSC_GDPS_RelativeHumidity_IsbL-0225_LatLon0.15_PT027H.grib2 2026-04-22 04:09 782K
20260422T00Z_MSC_GDPS_RelativeHumidity_IsbL-0250_LatLon0.15_PT027H.grib2 2026-04-22 04:09 866K
20260422T00Z_MSC_GDPS_RelativeHumidity_IsbL-0275_LatLon0.15_PT027H.grib2 2026-04-22 04:09 887K
20260422T00Z_MSC_GDPS_RelativeHumidity_IsbL-0300_LatLon0.15_PT027H.grib2 2026-04-22 04:09 932K
20260422T00Z_MSC_GDPS_RelativeHumidity_IsbL-0350_LatLon0.15_PT027H.grib2 2026-04-22 04:09 954K
20260422T00Z_MSC_GDPS_RelativeHumidity_IsbL-0400_LatLon0.15_PT027H.grib2 2026-04-22 04:09 1.0M
20260422T00Z_MSC_GDPS_RelativeHumidity_IsbL-0450_LatLon0.15_PT027H.grib2 2026-04-22 04:09 1.0M
20260422T00Z_MSC_GDPS_RelativeHumidity_IsbL-0500_LatLon0.15_PT027H.grib2 2026-04-22 04:09 1.0M
20260422T00Z_MSC_GDPS_RelativeHumidity_IsbL-0550_LatLon0.15_PT027H.grib2 2026-04-22 04:09 1.0M
20260422T00Z_MSC_GDPS_RelativeHumidity_IsbL-0600_LatLon0.15_PT027H.grib2 2026-04-22 04:09 1.1M
20260422T00Z_MSC_GDPS_RelativeHumidity_IsbL-0650_LatLon0.15_PT027H.grib2 2026-04-22 04:09 1.1M
20260422T00Z_MSC_GDPS_RelativeHumidity_IsbL-0700_LatLon0.15_PT027H.grib2 2026-04-22 04:09 1.1M
20260422T00Z_MSC_GDPS_RelativeHumidity_IsbL-0750_LatLon0.15_PT027H.grib2 2026-04-22 04:09 1.1M
20260422T00Z_MSC_GDPS_RelativeHumidity_IsbL-0800_LatLon0.15_PT027H.grib2 2026-04-22 04:09 1.2M
20260422T00Z_MSC_GDPS_RelativeHumidity_IsbL-0850_LatLon0.15_PT027H.grib2 2026-04-22 04:09 1.3M
20260422T00Z_MSC_GDPS_RelativeHumidity_IsbL-0875_LatLon0.15_PT027H.grib2 2026-04-22 04:09 1.3M
20260422T00Z_MSC_GDPS_RelativeHumidity_IsbL-0900_LatLon0.15_PT027H.grib2 2026-04-22 04:09 1.3M
20260422T00Z_MSC_GDPS_RelativeHumidity_IsbL-0925_LatLon0.15_PT027H.grib2 2026-04-22 04:09 1.2M
20260422T00Z_MSC_GDPS_RelativeHumidity_IsbL-0950_LatLon0.15_PT027H.grib2 2026-04-22 04:09 1.2M
20260422T00Z_MSC_GDPS_RelativeHumidity_IsbL-0970_LatLon0.15_PT027H.grib2 2026-04-22 04:09 1.2M
20260422T00Z_MSC_GDPS_RelativeHumidity_IsbL-0985_LatLon0.15_PT027H.grib2 2026-04-22 04:09 1.1M
20260422T00Z_MSC_GDPS_RelativeHumidity_IsbL-1000_LatLon0.15_PT027H.grib2 2026-04-22 04:09 1.1M
20260422T00Z_MSC_GDPS_RelativeHumidity_IsbL-1015_LatLon0.15_PT027H.grib2 2026-04-22 04:09 1.0M
20260422T00Z_MSC_GDPS_RelativeVorticity_IsbL-0200_LatLon0.15_PT027H.grib2 2026-04-22 04:09 1.2M
20260422T00Z_MSC_GDPS_RelativeVorticity_IsbL-0250_LatLon0.15_PT027H.grib2 2026-04-22 04:09 1.3M
20260422T00Z_MSC_GDPS_RelativeVorticity_IsbL-0500_LatLon0.15_PT027H.grib2 2026-04-22 04:09 1.5M
20260422T00Z_MSC_GDPS_RelativeVorticity_IsbL-0700_LatLon0.15_PT027H.grib2 2026-04-22 04:09 1.3M
20260422T00Z_MSC_GDPS_RelativeVorticity_IsbL-0850_LatLon0.15_PT027H.grib2 2026-04-22 04:09 1.6M
20260422T00Z_MSC_GDPS_Runoff-Accum_Sfc_LatLon0.15_PT027H.grib2 2026-04-22 04:09 109K
20260422T00Z_MSC_GDPS_SensibleHeatNetFlux_Sfc_LatLon0.15_PT027H.grib2 2026-04-22 04:09 457K
20260422T00Z_MSC_GDPS_ShowalterIndex_IsbL-0500_LatLon0.15_PT027H.grib2 2026-04-22 04:09 6.2M
20260422T00Z_MSC_GDPS_Snow-Accum1h_Sfc_LatLon0.15_PT027H.grib2 2026-04-22 04:09 883K
20260422T00Z_MSC_GDPS_Snow-Accum3h_Sfc_LatLon0.15_PT027H.grib2 2026-04-22 04:09 917K
20260422T00Z_MSC_GDPS_Snow-Accum_Sfc_LatLon0.15_PT027H.grib2 2026-04-22 04:09 1.8M
20260422T00Z_MSC_GDPS_SnowDensity_Sfc_LatLon0.15_PT027H.grib2 2026-04-22 04:09 263K
20260422T00Z_MSC_GDPS_SnowDepth_Sfc_LatLon0.15_PT027H.grib2 2026-04-22 04:09 1.8M
20260422T00Z_MSC_GDPS_SoilTemp_DBS-0to10cm_LatLon0.15_PT027H.grib2 2026-04-22 04:09 496K
20260422T00Z_MSC_GDPS_SoilTemp_Sfc_LatLon0.15_PT027H.grib2 2026-04-22 04:09 565K
20260422T00Z_MSC_GDPS_SoilVolumetricIceContent_Sfc_LatLon0.15_PT027H.grib2 2026-04-22 04:09 218K
20260422T00Z_MSC_GDPS_SoilVolumetricWaterContent_DBS-0to10cm_LatLon0.15_PT027H.grib2 2026-04-22 04:09 558K
20260422T00Z_MSC_GDPS_SoilVolumetricWaterContent_DBS-0to1cm_LatLon0.15_PT027H.grib2 2026-04-22 04:09 652K
20260422T00Z_MSC_GDPS_SpecificHumidity_AGL-120m_LatLon0.15_PT027H.grib2 2026-04-22 04:09 1.1M
20260422T00Z_MSC_GDPS_SpecificHumidity_AGL-2m_LatLon0.15_PT027H.grib2 2026-04-22 04:09 1.2M
20260422T00Z_MSC_GDPS_SpecificHumidity_AGL-40m_LatLon0.15_PT027H.grib2 2026-04-22 04:09 1.1M
20260422T00Z_MSC_GDPS_SpecificHumidity_AGL-80m_LatLon0.15_PT027H.grib2 2026-04-22 04:09 1.1M
20260422T00Z_MSC_GDPS_SpecificHumidity_IsbL-0001_LatLon0.15_PT027H.grib2 2026-04-22 04:09 1.0M
20260422T00Z_MSC_GDPS_SpecificHumidity_IsbL-0005_LatLon0.15_PT027H.grib2 2026-04-22 04:09 1.2M
20260422T00Z_MSC_GDPS_SpecificHumidity_IsbL-0010_LatLon0.15_PT027H.grib2 2026-04-22 04:09 1.3M
20260422T00Z_MSC_GDPS_SpecificHumidity_IsbL-0020_LatLon0.15_PT027H.grib2 2026-04-22 04:09 1.4M
20260422T00Z_MSC_GDPS_SpecificHumidity_IsbL-0030_LatLon0.15_PT027H.grib2 2026-04-22 04:09 1.4M
20260422T00Z_MSC_GDPS_SpecificHumidity_IsbL-0050_LatLon0.15_PT027H.grib2 2026-04-22 04:09 1.4M
20260422T00Z_MSC_GDPS_SpecificHumidity_IsbL-0100_LatLon0.15_PT027H.grib2 2026-04-22 04:09 1.4M
20260422T00Z_MSC_GDPS_SpecificHumidity_IsbL-0150_LatLon0.15_PT027H.grib2 2026-04-22 04:09 1.3M
20260422T00Z_MSC_GDPS_SpecificHumidity_IsbL-0175_LatLon0.15_PT027H.grib2 2026-04-22 04:09 1.3M
20260422T00Z_MSC_GDPS_SpecificHumidity_IsbL-0200_LatLon0.15_PT027H.grib2 2026-04-22 04:09 1.3M
20260422T00Z_MSC_GDPS_SpecificHumidity_IsbL-0225_LatLon0.15_PT027H.grib2 2026-04-22 04:09 1.3M
20260422T00Z_MSC_GDPS_SpecificHumidity_IsbL-0250_LatLon0.15_PT027H.grib2 2026-04-22 04:09 1.4M
20260422T00Z_MSC_GDPS_SpecificHumidity_IsbL-0275_LatLon0.15_PT027H.grib2 2026-04-22 04:09 1.3M
20260422T00Z_MSC_GDPS_SpecificHumidity_IsbL-0300_LatLon0.15_PT027H.grib2 2026-04-22 04:09 1.2M
20260422T00Z_MSC_GDPS_SpecificHumidity_IsbL-0350_LatLon0.15_PT027H.grib2 2026-04-22 04:09 1.2M
20260422T00Z_MSC_GDPS_SpecificHumidity_IsbL-0400_LatLon0.15_PT027H.grib2 2026-04-22 04:09 1.5M
20260422T00Z_MSC_GDPS_SpecificHumidity_IsbL-0450_LatLon0.15_PT027H.grib2 2026-04-22 04:09 1.6M
20260422T00Z_MSC_GDPS_SpecificHumidity_IsbL-0500_LatLon0.15_PT027H.grib2 2026-04-22 04:09 1.4M
20260422T00Z_MSC_GDPS_SpecificHumidity_IsbL-0550_LatLon0.15_PT027H.grib2 2026-04-22 04:09 1.6M
20260422T00Z_MSC_GDPS_SpecificHumidity_IsbL-0600_LatLon0.15_PT027H.grib2 2026-04-22 04:09 1.7M
20260422T00Z_MSC_GDPS_SpecificHumidity_IsbL-0650_LatLon0.15_PT027H.grib2 2026-04-22 04:09 1.5M
20260422T00Z_MSC_GDPS_SpecificHumidity_IsbL-0700_LatLon0.15_PT027H.grib2 2026-04-22 04:09 1.6M
20260422T00Z_MSC_GDPS_SpecificHumidity_IsbL-0750_LatLon0.15_PT027H.grib2 2026-04-22 04:09 1.7M
20260422T00Z_MSC_GDPS_SpecificHumidity_IsbL-0800_LatLon0.15_PT027H.grib2 2026-04-22 04:09 1.8M
20260422T00Z_MSC_GDPS_SpecificHumidity_IsbL-0850_LatLon0.15_PT027H.grib2 2026-04-22 04:09 1.9M
20260422T00Z_MSC_GDPS_SpecificHumidity_IsbL-0875_LatLon0.15_PT027H.grib2 2026-04-22 04:09 1.9M
20260422T00Z_MSC_GDPS_SpecificHumidity_IsbL-0900_LatLon0.15_PT027H.grib2 2026-04-22 04:09 1.9M
20260422T00Z_MSC_GDPS_SpecificHumidity_IsbL-0925_LatLon0.15_PT027H.grib2 2026-04-22 04:09 1.9M
20260422T00Z_MSC_GDPS_SpecificHumidity_IsbL-0950_LatLon0.15_PT027H.grib2 2026-04-22 04:09 1.5M
20260422T00Z_MSC_GDPS_SpecificHumidity_IsbL-0970_LatLon0.15_PT027H.grib2 2026-04-22 04:09 1.5M
20260422T00Z_MSC_GDPS_SpecificHumidity_IsbL-0985_LatLon0.15_PT027H.grib2 2026-04-22 04:09 1.5M
20260422T00Z_MSC_GDPS_SpecificHumidity_IsbL-1000_LatLon0.15_PT027H.grib2 2026-04-22 04:09 1.5M
20260422T00Z_MSC_GDPS_SpecificHumidity_IsbL-1015_LatLon0.15_PT027H.grib2 2026-04-22 04:09 1.4M
20260422T00Z_MSC_GDPS_SpecificHumidity_Sfc_LatLon0.15_PT027H.grib2 2026-04-22 04:09 625K
20260422T00Z_MSC_GDPS_Thickness_IsbL-0850to0700_LatLon0.15_PT027H.grib2 2026-04-22 04:09 471K
20260422T00Z_MSC_GDPS_Thickness_IsbL-1000to0500_LatLon0.15_PT027H.grib2 2026-04-22 04:09 336K
20260422T00Z_MSC_GDPS_Thickness_IsbL-1000to0850_LatLon0.15_PT027H.grib2 2026-04-22 04:09 485K
20260422T00Z_MSC_GDPS_TotalCloudCover_Sfc_LatLon0.15_PT027H.grib2 2026-04-22 04:09 822K
20260422T00Z_MSC_GDPS_TotalTotalsIndex_Sfc_LatLon0.15_PT027H.grib2 2026-04-22 04:09 6.2M
20260422T00Z_MSC_GDPS_UVIndex-ClearSky_Sfc_LatLon0.15_PT027H.grib2 2026-04-22 04:58 1.0M
20260422T00Z_MSC_GDPS_UVIndex_Sfc_LatLon0.15_PT027H.grib2 2026-04-22 04:58 1.4M
20260422T00Z_MSC_GDPS_UpwardLongwaveRadiationFlux_NTAtm_LatLon0.15_PT027H.grib2 2026-04-22 04:09 1.0M
20260422T00Z_MSC_GDPS_VerticalVelocity_IsbL-0200_LatLon0.15_PT027H.grib2 2026-04-22 04:09 1.2M
20260422T00Z_MSC_GDPS_VerticalVelocity_IsbL-0250_LatLon0.15_PT027H.grib2 2026-04-22 04:09 1.1M
20260422T00Z_MSC_GDPS_VerticalVelocity_IsbL-0500_LatLon0.15_PT027H.grib2 2026-04-22 04:09 1.0M
20260422T00Z_MSC_GDPS_VerticalVelocity_IsbL-0600_LatLon0.15_PT027H.grib2 2026-04-22 04:09 1.1M
20260422T00Z_MSC_GDPS_VerticalVelocity_IsbL-0700_LatLon0.15_PT027H.grib2 2026-04-22 04:09 1.1M
20260422T00Z_MSC_GDPS_VerticalVelocity_IsbL-0850_LatLon0.15_PT027H.grib2 2026-04-22 04:09 1.3M
20260422T00Z_MSC_GDPS_WindChill_Sfc_LatLon0.15_PT027H.grib2 2026-04-22 04:09 5.3M
20260422T00Z_MSC_GDPS_WindDir_AGL-10m_LatLon0.15_PT027H.grib2 2026-04-22 04:09 1.3M
20260422T00Z_MSC_GDPS_WindDir_AGL-120m_LatLon0.15_PT027H.grib2 2026-04-22 04:09 1.3M
20260422T00Z_MSC_GDPS_WindDir_AGL-40m_LatLon0.15_PT027H.grib2 2026-04-22 04:09 1.4M
20260422T00Z_MSC_GDPS_WindDir_AGL-80m_LatLon0.15_PT027H.grib2 2026-04-22 04:09 1.4M
20260422T00Z_MSC_GDPS_WindDir_IsbL-0001_LatLon0.15_PT027H.grib2 2026-04-22 04:09 652K
20260422T00Z_MSC_GDPS_WindDir_IsbL-0005_LatLon0.15_PT027H.grib2 2026-04-22 04:09 800K
20260422T00Z_MSC_GDPS_WindDir_IsbL-0010_LatLon0.15_PT027H.grib2 2026-04-22 04:09 878K
20260422T00Z_MSC_GDPS_WindDir_IsbL-0020_LatLon0.15_PT027H.grib2 2026-04-22 04:09 947K
20260422T00Z_MSC_GDPS_WindDir_IsbL-0030_LatLon0.15_PT027H.grib2 2026-04-22 04:09 920K
20260422T00Z_MSC_GDPS_WindDir_IsbL-0050_LatLon0.15_PT027H.grib2 2026-04-22 04:09 963K
20260422T00Z_MSC_GDPS_WindDir_IsbL-0100_LatLon0.15_PT027H.grib2 2026-04-22 04:09 1.0M
20260422T00Z_MSC_GDPS_WindDir_IsbL-0150_LatLon0.15_PT027H.grib2 2026-04-22 04:09 1.0M
20260422T00Z_MSC_GDPS_WindDir_IsbL-0175_LatLon0.15_PT027H.grib2 2026-04-22 04:09 1.0M
20260422T00Z_MSC_GDPS_WindDir_IsbL-0200_LatLon0.15_PT027H.grib2 2026-04-22 04:09 1.1M
20260422T00Z_MSC_GDPS_WindDir_IsbL-0225_LatLon0.15_PT027H.grib2 2026-04-22 04:09 1.1M
20260422T00Z_MSC_GDPS_WindDir_IsbL-0250_LatLon0.15_PT027H.grib2 2026-04-22 04:09 1.1M
20260422T00Z_MSC_GDPS_WindDir_IsbL-0275_LatLon0.15_PT027H.grib2 2026-04-22 04:09 1.1M
20260422T00Z_MSC_GDPS_WindDir_IsbL-0300_LatLon0.15_PT027H.grib2 2026-04-22 04:09 1.2M
20260422T00Z_MSC_GDPS_WindDir_IsbL-0350_LatLon0.15_PT027H.grib2 2026-04-22 04:09 1.2M
20260422T00Z_MSC_GDPS_WindDir_IsbL-0400_LatLon0.15_PT027H.grib2 2026-04-22 04:09 1.3M
20260422T00Z_MSC_GDPS_WindDir_IsbL-0450_LatLon0.15_PT027H.grib2 2026-04-22 04:09 1.3M
20260422T00Z_MSC_GDPS_WindDir_IsbL-0500_LatLon0.15_PT027H.grib2 2026-04-22 04:09 1.4M
20260422T00Z_MSC_GDPS_WindDir_IsbL-0550_LatLon0.15_PT027H.grib2 2026-04-22 04:09 1.4M
20260422T00Z_MSC_GDPS_WindDir_IsbL-0600_LatLon0.15_PT027H.grib2 2026-04-22 04:09 1.5M
20260422T00Z_MSC_GDPS_WindDir_IsbL-0650_LatLon0.15_PT027H.grib2 2026-04-22 04:09 1.5M
20260422T00Z_MSC_GDPS_WindDir_IsbL-0700_LatLon0.15_PT027H.grib2 2026-04-22 04:09 1.6M
20260422T00Z_MSC_GDPS_WindDir_IsbL-0750_LatLon0.15_PT027H.grib2 2026-04-22 04:09 1.7M
20260422T00Z_MSC_GDPS_WindDir_IsbL-0800_LatLon0.15_PT027H.grib2 2026-04-22 04:09 1.8M
20260422T00Z_MSC_GDPS_WindDir_IsbL-0850_LatLon0.15_PT027H.grib2 2026-04-22 04:09 1.9M
20260422T00Z_MSC_GDPS_WindDir_IsbL-0875_LatLon0.15_PT027H.grib2 2026-04-22 04:09 1.9M
20260422T00Z_MSC_GDPS_WindDir_IsbL-0900_LatLon0.15_PT027H.grib2 2026-04-22 04:09 1.9M
20260422T00Z_MSC_GDPS_WindDir_IsbL-0925_LatLon0.15_PT027H.grib2 2026-04-22 04:09 1.9M
20260422T00Z_MSC_GDPS_WindDir_IsbL-0950_LatLon0.15_PT027H.grib2 2026-04-22 04:09 1.9M
20260422T00Z_MSC_GDPS_WindDir_IsbL-0970_LatLon0.15_PT027H.grib2 2026-04-22 04:09 2.0M
20260422T00Z_MSC_GDPS_WindDir_IsbL-0985_LatLon0.15_PT027H.grib2 2026-04-22 04:09 2.0M
20260422T00Z_MSC_GDPS_WindDir_IsbL-1000_LatLon0.15_PT027H.grib2 2026-04-22 04:09 2.0M
20260422T00Z_MSC_GDPS_WindDir_IsbL-1015_LatLon0.15_PT027H.grib2 2026-04-22 04:09 2.0M
20260422T00Z_MSC_GDPS_WindGust-Max_AGL-10m_LatLon0.15_PT027H.grib2 2026-04-22 04:09 2.2M
20260422T00Z_MSC_GDPS_WindGust-Min_AGL-10m_LatLon0.15_PT027H.grib2 2026-04-22 04:09 2.2M
20260422T00Z_MSC_GDPS_WindGust_AGL-10m_LatLon0.15_PT027H.grib2 2026-04-22 04:09 2.2M
20260422T00Z_MSC_GDPS_WindSpeed_AGL-10m_LatLon0.15_PT027H.grib2 2026-04-22 04:09 1.1M
20260422T00Z_MSC_GDPS_WindSpeed_AGL-120m_LatLon0.15_PT027H.grib2 2026-04-22 04:09 1.2M
20260422T00Z_MSC_GDPS_WindSpeed_AGL-40m_LatLon0.15_PT027H.grib2 2026-04-22 04:09 1.2M
20260422T00Z_MSC_GDPS_WindSpeed_AGL-80m_LatLon0.15_PT027H.grib2 2026-04-22 04:09 1.2M
20260422T00Z_MSC_GDPS_WindSpeed_IsbL-0001_LatLon0.15_PT027H.grib2 2026-04-22 04:09 642K
20260422T00Z_MSC_GDPS_WindSpeed_IsbL-0005_LatLon0.15_PT027H.grib2 2026-04-22 04:09 611K
20260422T00Z_MSC_GDPS_WindSpeed_IsbL-0010_LatLon0.15_PT027H.grib2 2026-04-22 04:09 636K
20260422T00Z_MSC_GDPS_WindSpeed_IsbL-0020_LatLon0.15_PT027H.grib2 2026-04-22 04:09 867K
20260422T00Z_MSC_GDPS_WindSpeed_IsbL-0030_LatLon0.15_PT027H.grib2 2026-04-22 04:09 944K
20260422T00Z_MSC_GDPS_WindSpeed_IsbL-0050_LatLon0.15_PT027H.grib2 2026-04-22 04:09 1.0M
20260422T00Z_MSC_GDPS_WindSpeed_IsbL-0100_LatLon0.15_PT027H.grib2 2026-04-22 04:09 1.1M
20260422T00Z_MSC_GDPS_WindSpeed_IsbL-0150_LatLon0.15_PT027H.grib2 2026-04-22 04:09 950K
20260422T00Z_MSC_GDPS_WindSpeed_IsbL-0175_LatLon0.15_PT027H.grib2 2026-04-22 04:09 1.0M
20260422T00Z_MSC_GDPS_WindSpeed_IsbL-0200_LatLon0.15_PT027H.grib2 2026-04-22 04:09 1.1M
20260422T00Z_MSC_GDPS_WindSpeed_IsbL-0225_LatLon0.15_PT027H.grib2 2026-04-22 04:09 1.1M
20260422T00Z_MSC_GDPS_WindSpeed_IsbL-0250_LatLon0.15_PT027H.grib2 2026-04-22 04:09 1.1M
20260422T00Z_MSC_GDPS_WindSpeed_IsbL-0275_LatLon0.15_PT027H.grib2 2026-04-22 04:09 1.1M
20260422T00Z_MSC_GDPS_WindSpeed_IsbL-0300_LatLon0.15_PT027H.grib2 2026-04-22 04:09 1.1M
20260422T00Z_MSC_GDPS_WindSpeed_IsbL-0350_LatLon0.15_PT027H.grib2 2026-04-22 04:09 1.1M
20260422T00Z_MSC_GDPS_WindSpeed_IsbL-0400_LatLon0.15_PT027H.grib2 2026-04-22 04:09 1.1M
20260422T00Z_MSC_GDPS_WindSpeed_IsbL-0450_LatLon0.15_PT027H.grib2 2026-04-22 04:09 1.1M
20260422T00Z_MSC_GDPS_WindSpeed_IsbL-0500_LatLon0.15_PT027H.grib2 2026-04-22 04:09 1.1M
20260422T00Z_MSC_GDPS_WindSpeed_IsbL-0550_LatLon0.15_PT027H.grib2 2026-04-22 04:09 1.1M
20260422T00Z_MSC_GDPS_WindSpeed_IsbL-0600_LatLon0.15_PT027H.grib2 2026-04-22 04:09 1.1M
20260422T00Z_MSC_GDPS_WindSpeed_IsbL-0650_LatLon0.15_PT027H.grib2 2026-04-22 04:09 1.4M
20260422T00Z_MSC_GDPS_WindSpeed_IsbL-0700_LatLon0.15_PT027H.grib2 2026-04-22 04:09 1.5M
20260422T00Z_MSC_GDPS_WindSpeed_IsbL-0750_LatLon0.15_PT027H.grib2 2026-04-22 04:09 1.5M
20260422T00Z_MSC_GDPS_WindSpeed_IsbL-0800_LatLon0.15_PT027H.grib2 2026-04-22 04:09 1.6M
20260422T00Z_MSC_GDPS_WindSpeed_IsbL-0850_LatLon0.15_PT027H.grib2 2026-04-22 04:09 1.7M
20260422T00Z_MSC_GDPS_WindSpeed_IsbL-0875_LatLon0.15_PT027H.grib2 2026-04-22 04:09 1.8M
20260422T00Z_MSC_GDPS_WindSpeed_IsbL-0900_LatLon0.15_PT027H.grib2 2026-04-22 04:09 1.8M
20260422T00Z_MSC_GDPS_WindSpeed_IsbL-0925_LatLon0.15_PT027H.grib2 2026-04-22 04:09 1.9M
20260422T00Z_MSC_GDPS_WindSpeed_IsbL-0950_LatLon0.15_PT027H.grib2 2026-04-22 04:09 1.9M
20260422T00Z_MSC_GDPS_WindSpeed_IsbL-0970_LatLon0.15_PT027H.grib2 2026-04-22 04:09 1.8M
20260422T00Z_MSC_GDPS_WindSpeed_IsbL-0985_LatLon0.15_PT027H.grib2 2026-04-22 04:09 1.8M
20260422T00Z_MSC_GDPS_WindSpeed_IsbL-1000_LatLon0.15_PT027H.grib2 2026-04-22 04:09 1.8M
20260422T00Z_MSC_GDPS_WindSpeed_IsbL-1015_LatLon0.15_PT027H.grib2 2026-04-22 04:09 1.8M
20260422T00Z_MSC_GDPS_WindU_AGL-10m_LatLon0.15_PT027H.grib2 2026-04-22 04:09 1.6M
20260422T00Z_MSC_GDPS_WindU_AGL-120m_LatLon0.15_PT027H.grib2 2026-04-22 04:09 967K
20260422T00Z_MSC_GDPS_WindU_AGL-40m_LatLon0.15_PT027H.grib2 2026-04-22 04:09 961K
20260422T00Z_MSC_GDPS_WindU_AGL-80m_LatLon0.15_PT027H.grib2 2026-04-22 04:09 966K
20260422T00Z_MSC_GDPS_WindU_IsbL-0001_LatLon0.15_PT027H.grib2 2026-04-22 04:09 501K
20260422T00Z_MSC_GDPS_WindU_IsbL-0005_LatLon0.15_PT027H.grib2 2026-04-22 04:09 690K
20260422T00Z_MSC_GDPS_WindU_IsbL-0010_LatLon0.15_PT027H.grib2 2026-04-22 04:09 707K
20260422T00Z_MSC_GDPS_WindU_IsbL-0020_LatLon0.15_PT027H.grib2 2026-04-22 04:09 663K
20260422T00Z_MSC_GDPS_WindU_IsbL-0030_LatLon0.15_PT027H.grib2 2026-04-22 04:09 741K
20260422T00Z_MSC_GDPS_WindU_IsbL-0050_LatLon0.15_PT027H.grib2 2026-04-22 04:09 708K
20260422T00Z_MSC_GDPS_WindU_IsbL-0100_LatLon0.15_PT027H.grib2 2026-04-22 04:09 927K
20260422T00Z_MSC_GDPS_WindU_IsbL-0150_LatLon0.15_PT027H.grib2 2026-04-22 04:09 1.0M
20260422T00Z_MSC_GDPS_WindU_IsbL-0175_LatLon0.15_PT027H.grib2 2026-04-22 04:09 822K
20260422T00Z_MSC_GDPS_WindU_IsbL-0200_LatLon0.15_PT027H.grib2 2026-04-22 04:09 850K
20260422T00Z_MSC_GDPS_WindU_IsbL-0225_LatLon0.15_PT027H.grib2 2026-04-22 04:09 862K
20260422T00Z_MSC_GDPS_WindU_IsbL-0250_LatLon0.15_PT027H.grib2 2026-04-22 04:09 864K
20260422T00Z_MSC_GDPS_WindU_IsbL-0275_LatLon0.15_PT027H.grib2 2026-04-22 04:09 891K
20260422T00Z_MSC_GDPS_WindU_IsbL-0300_LatLon0.15_PT027H.grib2 2026-04-22 04:09 882K
20260422T00Z_MSC_GDPS_WindU_IsbL-0350_LatLon0.15_PT027H.grib2 2026-04-22 04:09 897K
20260422T00Z_MSC_GDPS_WindU_IsbL-0400_LatLon0.15_PT027H.grib2 2026-04-22 04:09 898K
20260422T00Z_MSC_GDPS_WindU_IsbL-0450_LatLon0.15_PT027H.grib2 2026-04-22 04:09 900K
20260422T00Z_MSC_GDPS_WindU_IsbL-0500_LatLon0.15_PT027H.grib2 2026-04-22 04:09 1.1M
20260422T00Z_MSC_GDPS_WindU_IsbL-0550_LatLon0.15_PT027H.grib2 2026-04-22 04:09 1.1M
20260422T00Z_MSC_GDPS_WindU_IsbL-0600_LatLon0.15_PT027H.grib2 2026-04-22 04:09 1.2M
20260422T00Z_MSC_GDPS_WindU_IsbL-0650_LatLon0.15_PT027H.grib2 2026-04-22 04:09 1.2M
20260422T00Z_MSC_GDPS_WindU_IsbL-0700_LatLon0.15_PT027H.grib2 2026-04-22 04:09 1.2M
20260422T00Z_MSC_GDPS_WindU_IsbL-0750_LatLon0.15_PT027H.grib2 2026-04-22 04:09 1.3M
20260422T00Z_MSC_GDPS_WindU_IsbL-0800_LatLon0.15_PT027H.grib2 2026-04-22 04:09 1.3M
20260422T00Z_MSC_GDPS_WindU_IsbL-0850_LatLon0.15_PT027H.grib2 2026-04-22 04:09 1.4M
20260422T00Z_MSC_GDPS_WindU_IsbL-0875_LatLon0.15_PT027H.grib2 2026-04-22 04:09 1.4M
20260422T00Z_MSC_GDPS_WindU_IsbL-0900_LatLon0.15_PT027H.grib2 2026-04-22 04:09 1.4M
20260422T00Z_MSC_GDPS_WindU_IsbL-0925_LatLon0.15_PT027H.grib2 2026-04-22 04:09 1.4M
20260422T00Z_MSC_GDPS_WindU_IsbL-0950_LatLon0.15_PT027H.grib2 2026-04-22 04:09 1.4M
20260422T00Z_MSC_GDPS_WindU_IsbL-0970_LatLon0.15_PT027H.grib2 2026-04-22 04:09 1.4M
20260422T00Z_MSC_GDPS_WindU_IsbL-0985_LatLon0.15_PT027H.grib2 2026-04-22 04:09 1.4M
20260422T00Z_MSC_GDPS_WindU_IsbL-1000_LatLon0.15_PT027H.grib2 2026-04-22 04:09 1.7M
20260422T00Z_MSC_GDPS_WindU_IsbL-1015_LatLon0.15_PT027H.grib2 2026-04-22 04:09 1.6M
20260422T00Z_MSC_GDPS_WindV_AGL-10m_LatLon0.15_PT027H.grib2 2026-04-22 04:09 1.6M
20260422T00Z_MSC_GDPS_WindV_AGL-120m_LatLon0.15_PT027H.grib2 2026-04-22 04:09 969K
20260422T00Z_MSC_GDPS_WindV_AGL-40m_LatLon0.15_PT027H.grib2 2026-04-22 04:09 1.2M
20260422T00Z_MSC_GDPS_WindV_AGL-80m_LatLon0.15_PT027H.grib2 2026-04-22 04:09 969K
20260422T00Z_MSC_GDPS_WindV_IsbL-0001_LatLon0.15_PT027H.grib2 2026-04-22 04:09 702K
20260422T00Z_MSC_GDPS_WindV_IsbL-0005_LatLon0.15_PT027H.grib2 2026-04-22 04:09 779K
20260422T00Z_MSC_GDPS_WindV_IsbL-0010_LatLon0.15_PT027H.grib2 2026-04-22 04:09 887K
20260422T00Z_MSC_GDPS_WindV_IsbL-0020_LatLon0.15_PT027H.grib2 2026-04-22 04:09 853K
20260422T00Z_MSC_GDPS_WindV_IsbL-0030_LatLon0.15_PT027H.grib2 2026-04-22 04:09 850K
20260422T00Z_MSC_GDPS_WindV_IsbL-0050_LatLon0.15_PT027H.grib2 2026-04-22 04:09 913K
20260422T00Z_MSC_GDPS_WindV_IsbL-0100_LatLon0.15_PT027H.grib2 2026-04-22 04:09 1.1M
20260422T00Z_MSC_GDPS_WindV_IsbL-0150_LatLon0.15_PT027H.grib2 2026-04-22 04:09 937K
20260422T00Z_MSC_GDPS_WindV_IsbL-0175_LatLon0.15_PT027H.grib2 2026-04-22 04:09 1.0M
20260422T00Z_MSC_GDPS_WindV_IsbL-0200_LatLon0.15_PT027H.grib2 2026-04-22 04:09 1.1M
20260422T00Z_MSC_GDPS_WindV_IsbL-0225_LatLon0.15_PT027H.grib2 2026-04-22 04:09 859K
20260422T00Z_MSC_GDPS_WindV_IsbL-0250_LatLon0.15_PT027H.grib2 2026-04-22 04:09 860K
20260422T00Z_MSC_GDPS_WindV_IsbL-0275_LatLon0.15_PT027H.grib2 2026-04-22 04:09 886K
20260422T00Z_MSC_GDPS_WindV_IsbL-0300_LatLon0.15_PT027H.grib2 2026-04-22 04:09 875K
20260422T00Z_MSC_GDPS_WindV_IsbL-0350_LatLon0.15_PT027H.grib2 2026-04-22 04:09 947K
20260422T00Z_MSC_GDPS_WindV_IsbL-0400_LatLon0.15_PT027H.grib2 2026-04-22 04:09 890K
20260422T00Z_MSC_GDPS_WindV_IsbL-0450_LatLon0.15_PT027H.grib2 2026-04-22 04:09 890K
20260422T00Z_MSC_GDPS_WindV_IsbL-0500_LatLon0.15_PT027H.grib2 2026-04-22 04:09 1.1M
20260422T00Z_MSC_GDPS_WindV_IsbL-0550_LatLon0.15_PT027H.grib2 2026-04-22 04:09 1.1M
20260422T00Z_MSC_GDPS_WindV_IsbL-0600_LatLon0.15_PT027H.grib2 2026-04-22 04:09 1.1M
20260422T00Z_MSC_GDPS_WindV_IsbL-0650_LatLon0.15_PT027H.grib2 2026-04-22 04:09 1.2M
20260422T00Z_MSC_GDPS_WindV_IsbL-0700_LatLon0.15_PT027H.grib2 2026-04-22 04:09 1.2M
20260422T00Z_MSC_GDPS_WindV_IsbL-0750_LatLon0.15_PT027H.grib2 2026-04-22 04:09 1.2M
20260422T00Z_MSC_GDPS_WindV_IsbL-0800_LatLon0.15_PT027H.grib2 2026-04-22 04:09 1.3M
20260422T00Z_MSC_GDPS_WindV_IsbL-0850_LatLon0.15_PT027H.grib2 2026-04-22 04:09 1.4M
20260422T00Z_MSC_GDPS_WindV_IsbL-0875_LatLon0.15_PT027H.grib2 2026-04-22 04:09 1.4M
20260422T00Z_MSC_GDPS_WindV_IsbL-0900_LatLon0.15_PT027H.grib2 2026-04-22 04:09 1.4M
20260422T00Z_MSC_GDPS_WindV_IsbL-0925_LatLon0.15_PT027H.grib2 2026-04-22 04:09 1.4M
20260422T00Z_MSC_GDPS_WindV_IsbL-0950_LatLon0.15_PT027H.grib2 2026-04-22 04:09 1.4M
20260422T00Z_MSC_GDPS_WindV_IsbL-0970_LatLon0.15_PT027H.grib2 2026-04-22 04:09 1.4M
20260422T00Z_MSC_GDPS_WindV_IsbL-0985_LatLon0.15_PT027H.grib2 2026-04-22 04:09 1.4M
20260422T00Z_MSC_GDPS_WindV_IsbL-1000_LatLon0.15_PT027H.grib2 2026-04-22 04:09 1.7M
20260422T00Z_MSC_GDPS_WindV_IsbL-1015_LatLon0.15_PT027H.grib2 2026-04-22 04:09 1.6M